カタログに戻る

COSMOS 2596

運用中ナビゲーションMEO
NORAD 65589·PAYLOAD·🇷🇺 Russia

打ち上げ Sep 13, 2025 から Plesetsk Cosmodrome

Loading…

次のパス (今後24時間)

TLE

最新Source: Space-Track

元期: Sep 14, 2026, 13:02 UTC

1 65589U 25206A   26257.54370946 -.00000054  00000-0  00000-0 0  9998
2 65589  64.5818 311.6579 0066134 304.1651  55.2829  2.14901372  7871

AllMySatでCOSMOS 2596をリアルタイム追跡

Download on the App Store